Regional Weather Roundup
Issued by NWS

Home | Current Version | Previous Version | Text Only | Print | Product List | Glossary On
Versions: 1 2 3 4 5 6 7 8 9 10 11 12 13 14 15 16 17 18 19 20 21 22 23 24 25 26 27 28 29 30 31 32 33 34 35 36 37 38 39 40 41 42 43 44 45 46 47 48 49 50
000
ASUS45 KTFX 200919
RWRMT
MONTANA HOURLY WEATHER ROUNDUP
NATIONAL WEATHER SERVICE GREAT FALLS MT
219 AM MST SAT DEC 20 2014

NOTE: "FAIR" INDICATES FEW OR NO CLOUDS BELOW 12000 FEET WITH NO
SIGNIFICANT WEATHER AND/OR OBSTRUCTIONS TO VISIBILITY.

* THESE STATIONS ARE NOT UNDER NWS QUALITY CONTROL. THEY DO NOT
   REPORT WEATHER SUCH AS PRECIPITATION OR FOG.

MTZ001>007-043-201000-
WEST OF THE DIVIDE
CITY           SKY/WX    TMP DP  RH WIND       PRES   REMARKS
KALISPELL      MOCLDY    36  32  85 SE7       29.95S WCI  30
MISSOULA       FOG       27  27 100 CALM      30.01F VSB M1/4
BUTTE          PTCLDY    28  19  69 E5        29.96F WCI  22
MULLAN PASS    LGT SNOW  27  23  85 VRB3      29.90S
* ESSEX        N/A       32  32 100 N/A        N/A
* EUREKA APT   CLEAR     37  28  70 SE6       29.94F WCI  32
* HAMILTON APT CLEAR     32  25  75 S9        29.99F WCI  24
* LIBBY APT    PTCLDY    30  30 100 CALM      29.98S
* LINCOLN      N/A       31  26  82 S5G10      N/A   WCI  26
* LOOKOUT PASS N/A       30  26  85 W2         N/A
* POLSON       N/A       31  31 100 SE1        N/A
* RONAN APT    CLEAR     34  32  92 N/A        N/A
* SEELEY LAKE  N/A       26  25  96 N1         N/A
* THOMP F APT  PTCLDY    26  25  96 S2G7       N/A
$$

MTZ008-052>055-201000-
SOUTHWEST MONTANA
CITY           SKY/WX    TMP DP  RH WIND       PRES   REMARKS
BOZEMAN        PTCLDY    28  25  89 CALM      29.97S
DILLON         FAIR      28  19  69 S14       29.97F WCI  17
* W YELLOWSTON PTCLDY    27  24  88 SW5G11     N/A   WCI  21
* THREE FORKS  PTCLDY    36 -11  12 N/A        N/A
* BOULDER HILL N/A       28  19  69 S4         N/A
* MONIDA PASS  N/A       25  25 100 SE11       N/A   WCI  14
* RAYNOLDS PAS N/A       26   8  46 S3         N/A
* WHITEHALL    N/A       35  25  67 SW6G15     N/A   WCI  30
* WISE RIVER   N/A       25  21  85 SW5G13     N/A   WCI  19
$$

MTZ009>010-012-014-046-048-049-054-201000-
EAST SLOPES AND CENTRAL MONTANA
CITY           SKY/WX    TMP DP  RH WIND       PRES   REMARKS
CUT BANK       CLOUDY    36  27  70 W23       29.78S WCI  24
GREAT FALLS    PTCLDY    36  23  59 SW15      29.85S WCI  27
HELENA         FAIR      30  25  82 CALM      29.95R
MALMSTROM AFB  PTCLDY    36  25  64 SW18      29.87S WCI  26
* CONRAD       MOCLDY    34  28  79 CALM       N/A
* DEARBORN     N/A       40  23  51 S9G20      N/A   WCI  34
* EAST GLACIER N/A       32  21  64 SW15G21    N/A   WCI  22
* MONARCH      N/A       31  14  49 SW14G21    N/A   WCI  21
* PENDROY      N/A       33  21  61 NW12       N/A   WCI  24
* ROGERS PASS  N/A       29  20  69 SE11G21    N/A   WCI  19
* SWEET GRASS  N/A       35  25  67 W24G32     N/A   WCI  23
* WHITE SULPH  N/A       29  24  82 E3         N/A
$$

MTZ011-013-016-021-035-040-045-047-050-051-201000-
NORTH CENTRAL MONTANA
CITY           SKY/WX    TMP DP  RH WIND       PRES   REMARKS
HAVRE          CLOUDY    36  30  79 SW12      29.80S WCI  28
LEWISTOWN      CLOUDY    39  25  57 SW18      29.85R WCI  30
* N BAR RANCH  CLOUDY    37  16  42 W9        29.85R WCI  30
* CHINOOK      PTCLDY    34  30  85 SW5       29.80F WCI  29
* CHESTER      N/A       29  25  85 NW3G8      N/A
* DENTON       N/A       37  25  62 SW11       N/A   WCI  29
* GEYSER       N/A       35  19  52 W15G20     N/A   WCI  25
* JUDITH GAP   N/A       30  24  78 S6         N/A   WCI  24
* LOMA         N/A       38  29  70 SW11G16    N/A   WCI  31
$$

MTZ017>020-022>027-061-062-201000-
NORTHEAST MONTANA
CITY           SKY/WX    TMP DP  RH WIND       PRES   REMARKS
GLASGOW        CLOUDY    28  25  89 SE6       29.82R WCI  21
GLENDIVE       CLOUDY    30  25  82 SW7       29.86S WCI  23
JORDAN         PTCLDY    30  27  89 NW9       29.83R WCI  22
SIDNEY         CLOUDY    19  18  96 CALM      29.88S VSB 2
WOLF POINT     CLOUDY    25  21  85 E5        29.85R WCI  19
* BEAVER HILL  N/A       34  23  64 S10        N/A   WCI  26
* CIRCLE       N/A       35  28  76 SW3        N/A
* LINDSAY DVD  N/A       32  25  75 SE4        N/A
* NAVAJO       N/A       22  21  96 S2         N/A
* PLENTYWOOD A PTCLDY    18  16  92 CALM      29.83F VSB M1/4
* POPLAR APT   PTCLDY    21  19  92 CALM      29.84F
* SACO         N/A       31  29  92 E2         N/A
$$

MTZ028>042-056>058-201000-
SOUTHCENTRAL AND SOUTHEAST MONTANA
CITY           SKY/WX    TMP DP  RH WIND       PRES   REMARKS
BAKER          CLOUDY    28  27  96 CALM      29.86F
BILLINGS       PTCLDY    34  21  59 SW12      29.91R WCI  25
LIVINGSTON     CLOUDY    39  25  57 W15       29.92S WCI  31
MILES CITY     CLOUDY    30  25  82 CALM      29.85S
* FORSYTH APT  MOCLDY    37  27  67 SW5       29.86S WCI  33
* LAUREL APT   PTCLDY    30  16  56 SW6        N/A   WCI  24
* ROUNDUP APT  PTCLDY    36  27  70 N/A        N/A
* ALZADA       N/A       31  22  69 W3         N/A
* HYSHAM       N/A       36  20  52 W4G12      N/A
* LAME DEER    N/A       36  21  54 W7G12      N/A   WCI  30
* REED POINT   N/A       24  22  92 N/A        N/A
* ROSCOE HILL  N/A       32  10  40 SE11       N/A   WCI  23
$$

REGIONAL REPORTS...DAKOTAS
CITY           SKY/WX    TMP DP  RH WIND       PRES   REMARKS
WILLISTON      FOG       10   7  88 NW3       29.87F VSB 2
DICKINSON      FAIR      25  18  75 S3        29.85S
BEACH          CLOUDY    28  27  96 S3        29.86S
CROSBY         FOG       18  18 100 SE5       29.88S VSB 1/2  WCI  11
TIOGA          FOG        9   9 100 CALM      29.89F VSB M1/4
WATFORD CITY   CLEAR     12  10  92 NE3       29.85F
BISMARCK       FOG       16  12  84 E5        29.94F VSB 3/4  WCI   8
GRAND FORKS    FOG       28  27  96 S7        30.01R WCI  21
FARGO          CLOUDY    30  28  92 S9        30.03R WCI  22
BUFFALO SD     MOCLDY    28  19  69 W3        29.82R
RAPID CITY     PTCLDY    25  18  75 NW9       29.89F WCI  16
$$

REGIONAL REPORTS...WYOMING/IDAHO/WASHINGTON
CITY           SKY/WX    TMP DP  RH WIND       PRES   REMARKS
GILLETTE       CLOUDY    34  23  64 VRB3      29.90R
SHERIDAN       CLOUDY    28  23  81 SW8       29.89F WCI  20
CODY           PTCLDY    37  23  57 SW12      29.92R WCI  29
YELLOWSTONE LA MOCLDY    25  19  78 VRB6      30.02R WCI  18
SALMON         CLOUDY    25  21  85 CALM      30.01F
MULLAN PASS    LGT SNOW  27  23  85 VRB3      29.90S
SAND POINT     CLOUDY    36  36 100 S3        29.98S
SPOKANE        CLOUDY    34  34 100 SE7       29.96F WCI  28
$$

REGIONAL REPORTS...ALBERTA
CITY           SKY/WX    TMP DP  RH WIND       PRES   REMARKS
CALGARY        FAIR      32  19  59 S3        29.70S
LETHBRIDGE     PTCLDY    37  27  67 W26G33    29.75F WCI  25
MEDICINE HAT   CLOUDY    36  32  85 SW12      29.73R WCI  28
EDMONTON       MOCLDY    18  14  84 SE6       29.68S WCI  10
WATERTON GATE  N/A       36  21  54 S18G29     N/A   WCI  26
CARDSTON       N/A       36  25  64 W16G25     N/A   WCI  26
MILK RIVER     N/A       32  27  82 W14        N/A   WCI  22
$$

REGIONAL REPORTS...SASKATCHEWAN
CITY           SKY/WX    TMP DP  RH WIND       PRES   REMARKS
SWIFT CURRENT  N/A       34  30  85 SW17      29.68F WCI  23
REGINA         FOG       18  16  92 SE15      29.83F VSB 1/4  WCI   4
VAL MARIE      N/A       32  34 N/A SW7        N/A   WCI  25
ASSINIBOIA     N/A       25  23  92 SE7        N/A   WCI  17
CORONACH       N/A       23  23 100 E3         N/A

$$




USA.gov is the U.S. government's official web portal to all federal, state and local government web resources and services.